Location: Milton Keynes
(52.0316°N, 0.7531°W)
Time: 22:04:47
(UTC+00:00)

N. Korean satellite - Pass Details

Date: 26 September 2020
Orbit: 452 x 505 km, 97.2° (Epoch: 28 October)

Event Time Altitude Azimuth Distance (km) Brightness Sun altitude
Rises 05:50:24 0° 24° (NNE) 2,604 10.8 -10.9°
Reaches altitude 10° 05:52:54 10° 41° (NE) 1,706 10.2 -10.5°
Maximum altitude 05:55:45 21° 92° (E) 1,154 9.6 -10.1°
Drops below altitude 10° 05:58:32 10° 143° (SE) 1,671 9.7 -9.7°
Sets 06:00:57 0° 160° (SSE) 2,535 10.4 -9.3°
